| time (UTC) | temp F | wind direction | speed MPH | gust MPH | rain 1hr in | rain 24hr in | rain mn in | humidity % | barometer mb |
| 20260502161901 | 62 | 159 | 0.0 | 0.0 | 0.00 | 0.00 | 0.00 | 87 | 1014.7 |
| 20260502161357 | 62 | 158 | 0.0 | 0.0 | 0.00 | 0.00 | 0.00 | 88 | 1014.8 |
| 20260502160855 | 62 | 196 | 0.0 | 1.0 | 0.00 | 0.00 | 0.00 | 88 | 1014.7 |
| 20260502160353 | 62 | 117 | 0.0 | 0.0 | 0.00 | 0.00 | 0.00 | 89 | 1014.7 |
| 20260502152334 | 61 | 42 | 0.0 | 1.0 | 0.00 | 0.00 | 0.00 | 91 | 1014.7 |
| 20260502151832 | 61 | 247 | 1.0 | 1.0 | 0.00 | 0.00 | 0.00 | 91 | 1014.7 |
| 20260502151328 | 61 | 32 | 1.0 | 1.0 | 0.00 | 0.00 | 0.00 | 91 | 1014.7 |
| 20260502150826 | 60 | 275 | 1.0 | 2.0 | 0.00 | 0.00 | 0.00 | 92 | 1014.5 |
| 20260502150322 | 60 | 200 | 1.0 | 1.0 | 0.00 | 0.00 | 0.00 | 92 | 1014.7 |
| 20260502130710 | 59 | 111 | 1.0 | 1.0 | 0.00 | 0.00 | 0.00 | 94 | 1013.9 |
| 20260502130208 | 59 | 106 | 1.0 | 1.0 | 0.00 | 0.00 | 0.00 | 93 | 1013.9 |
| 20260502123654 | 60 | 112 | 1.0 | 1.0 | 0.00 | 0.00 | 0.00 | 93 | 1013.6 |
| 20260502123150 | 60 | 109 | 2.0 | 2.0 | 0.00 | 0.00 | 0.00 | 93 | 1013.9 |
| 20260502122647 | 60 | 119 | 2.0 | 2.0 | 0.00 | 0.00 | 0.00 | 93 | 1013.8 |
| 20260502122143 | 60 | 114 | 1.0 | 1.0 | 0.00 | 0.00 | 0.00 | 93 | 1013.9 |
| 20260502121642 | 60 | 115 | 2.0 | 2.0 | 0.00 | 0.00 | 0.00 | 93 | 1013.5 |
| 20260502121139 | 60 | 106 | 1.0 | 1.0 | 0.00 | 0.00 | 0.00 | 92 | 1013.5 |
| 20260502120635 | 60 | 112 | 1.0 | 2.0 | 0.00 | 0.00 | 0.00 | 92 | 1013.5 |
| 20260502120132 | 60 | 104 | 1.0 | 1.0 | 0.00 | 0.00 | 0.00 | 92 | 1013.6 |
| 20260502115630 | 60 | 111 | 0.0 | 0.0 | 0.00 | 0.00 | 0.00 | 92 | 1013.5 |
| 20260502115126 | 60 | 105 | 1.0 | 2.0 | 0.00 | 0.00 | 0.00 | 92 | 1013.3 |
| 20260502114622 | 60 | 121 | 0.0 | 0.0 | 0.00 | 0.00 | 0.00 | 93 | 1013.5 |
| 20260502114120 | 60 | 114 | 0.0 | 0.0 | 0.00 | 0.00 | 0.00 | 93 | 1013.3 |
| 20260502113617 | 60 | 123 | 0.0 | 0.0 | 0.00 | 0.00 | 0.00 | 93 | 1013.4 |
| 20260502113115 | 60 | 123 | 0.0 | 0.0 | 0.00 | 0.00 | 0.00 | 93 | 1013.4 |
| 20260502112613 | 60 | 99 | 0.0 | 0.0 | 0.00 | 0.00 | 0.00 | 92 | 1013.4 |
| 20260502112110 | 60 | 121 | 0.0 | 1.0 | 0.00 | 0.00 | 0.00 | 92 | 1013.4 |
| 20260502111608 | 60 | 102 | 0.0 | 0.0 | 0.00 | 0.00 | 0.00 | 92 | 1013.4 |
| 20260502111105 | 60 | 102 | 0.0 | 0.0 | 0.00 | 0.00 | 0.00 | 92 | 1013.3 |
| 20260502110602 | 60 | 90 | 0.0 | 1.0 | 0.00 | 0.00 | 0.00 | 92 | 1013.4 |
| 20260502110059 | 60 | 101 | 1.0 | 1.0 | 0.00 | 0.00 | 0.00 | 92 | 1013.3 |
| 20260502105556 | 60 | 121 | 0.0 | 0.0 | 0.00 | 0.00 | 0.00 | 92 | 1013.2 |
| 20260502105054 | 60 | 137 | 0.0 | 1.0 | 0.00 | 0.00 | 0.00 | 92 | 1013.3 |
| 20260502104551 | 60 | 106 | 0.0 | 1.0 | 0.00 | 0.00 | 0.00 | 92 | 1013.3 |
| 20260502104048 | 60 | 90 | 1.0 | 1.0 | 0.00 | 0.00 | 0.00 | 92 | 1013.3 |
| 20260502103546 | 60 | 39 | 1.0 | 2.0 | 0.00 | 0.00 | 0.00 | 92 | 1013.4 |
| 20260502103044 | 60 | 95 | 1.0 | 2.0 | 0.00 | 0.00 | 0.00 | 92 | 1013.2 |
| 20260502102540 | 60 | 93 | 1.0 | 1.0 | 0.00 | 0.00 | 0.00 | 92 | 1013.2 |
| 20260502102037 | 60 | 109 | 0.0 | 0.0 | 0.00 | 0.00 | 0.00 | 92 | 1013.0 |
| 20260502101535 | 60 | 103 | 0.0 | 0.0 | 0.00 | 0.00 | 0.00 | 92 | 1013.3 |
| 20260502101033 | 60 | 127 | 0.0 | 0.0 | 0.00 | 0.00 | 0.00 | 92 | 1013.3 |
| 20260502100531 | 60 | 116 | 0.0 | 0.0 | 0.00 | 0.00 | 0.00 | 92 | 1013.2 |
| 20260502091506 | 60 | 180 | 0.0 | 0.0 | 0.00 | 0.00 | 0.00 | 91 | 1013.4 |
| 20260502091003 | 60 | 167 | 0.0 | 0.0 | 0.00 | 0.00 | 0.00 | 91 | 1013.2 |
| 20260502090500 | 60 | 200 | 0.0 | 1.0 | 0.00 | 0.00 | 0.00 | 91 | 1013.2 |
| 20260502071355 | 60 | 140 | 0.0 | 0.0 | 0.00 | 0.00 | 0.00 | 92 | 1014.0 |
| 20260502070853 | 60 | 140 | 0.0 | 0.0 | 0.00 | 0.00 | 0.00 | 92 | 1014.1 |
| 20260502070350 | 60 | 140 | 0.0 | 0.0 | 0.00 | 0.00 | 0.00 | 92 | 1013.9 |
| 20260502065849 | 60 | 131 | 0.0 | 0.0 | 0.00 | 0.00 | 0.00 | 92 | 1014.0 |
| 20260502065347 | 60 | 119 | 1.0 | 1.0 | 0.00 | 0.00 | 0.00 | 93 | 1014.1 |
| 20260502064844 | 59 | 144 | 0.0 | 0.0 | 0.00 | 0.00 | 0.00 | 93 | 1014.0 |
| 20260502064342 | 59 | 127 | 1.0 | 2.0 | 0.00 | 0.00 | 0.00 | 94 | 1013.9 |
| 20260502063839 | 59 | 123 | 0.0 | 0.0 | 0.00 | 0.00 | 0.00 | 95 | 1014.1 |
| 20260502063337 | 58 | 123 | 1.0 | 1.0 | 0.00 | 0.00 | 0.00 | 95 | 1013.9 |
| 20260502062834 | 58 | 132 | 0.0 | 0.0 | 0.00 | 0.00 | 0.00 | 95 | 1014.1 |
| 20260502062331 | 57 | 132 | 0.0 | 0.0 | 0.00 | 0.00 | 0.00 | 96 | 1014.1 |
| 20260502061830 | 57 | 132 | 0.0 | 0.0 | 0.00 | 0.00 | 0.00 | 96 | 1014.1 |
| 20260502061327 | 57 | 132 | 0.0 | 0.0 | 0.00 | 0.00 | 0.00 | 96 | 1013.9 |
| 20260502060823 | 56 | 132 | 0.0 | 0.0 | 0.00 | 0.00 | 0.00 | 96 | 1014.1 |
| 20260502060318 | 56 | 132 | 0.0 | 0.0 | 0.00 | 0.00 | 0.00 | 96 | 1013.8 |
| 20260502055816 | 56 | 133 | 0.0 | 0.0 | 0.00 | 0.00 | 0.00 | 96 | 1014.0 |
| 20260502055314 | 55 | 133 | 0.0 | 0.0 | 0.00 | 0.00 | 0.00 | 96 | 1014.1 |
| 20260502054813 | 55 | 134 | 0.0 | 0.0 | 0.00 | 0.00 | 0.00 | 95 | 1013.9 |
| 20260502054311 | 55 | 135 | 0.0 | 0.0 | 0.00 | 0.00 | 0.00 | 95 | 1014.1 |
| 20260502053808 | 55 | 135 | 0.0 | 0.0 | 0.00 | 0.00 | 0.00 | 95 | 1014.0 |
| 20260502053305 | 55 | 135 | 0.0 | 0.0 | 0.00 | 0.00 | 0.00 | 95 | 1014.2 |
| 20260502052803 | 55 | 134 | 0.0 | 0.0 | 0.00 | 0.00 | 0.00 | 95 | 1013.9 |
| 20260502052300 | 55 | 136 | 0.0 | 0.0 | 0.00 | 0.00 | 0.00 | 95 | 1013.9 |
| 20260502051758 | 55 | 135 | 0.0 | 1.0 | 0.00 | 0.00 | 0.00 | 95 | 1014.0 |
| 20260502051257 | 55 | 140 | 0.0 | 1.0 | 0.00 | 0.00 | 0.00 | 95 | 1014.1 |
| 20260502050752 | 56 | 140 | 0.0 | 0.0 | 0.00 | 0.00 | 0.00 | 94 | 1014.2 |
| 20260502050248 | 56 | 151 | 0.0 | 0.0 | 0.00 | 0.00 | 0.00 | 94 | 1014.1 |
| 20260502045746 | 57 | 120 | 0.0 | 0.0 | 0.00 | 0.00 | 0.00 | 94 | 1014.1 |
| 20260502045243 | 57 | 120 | 0.0 | 0.0 | 0.00 | 0.00 | 0.00 | 94 | 1014.0 |
| 20260502044739 | 57 | 123 | 1.0 | 2.0 | 0.00 | 0.00 | 0.00 | 93 | 1014.0 |
| 20260502044235 | 57 | 135 | 0.0 | 0.0 | 0.00 | 0.00 | 0.00 | 93 | 1014.1 |
| 20260502043733 | 57 | 117 | 0.0 | 1.0 | 0.00 | 0.00 | 0.00 | 93 | 1013.9 |
| 20260502043231 | 57 | 131 | 0.0 | 1.0 | 0.00 | 0.00 | 0.00 | 93 | 1014.0 |
| 20260502042730 | 58 | 156 | 0.0 | 1.0 | 0.00 | 0.00 | 0.00 | 92 | 1013.7 |
| 20260502042227 | 58 | 175 | 1.0 | 1.0 | 0.00 | 0.00 | 0.00 | 92 | 1013.7 |
| 20260502041725 | 58 | 159 | 0.0 | 0.0 | 0.00 | 0.00 | 0.00 | 92 | 1014.0 |
| 20260502041222 | 58 | 160 | 0.0 | 0.0 | 0.00 | 0.00 | 0.00 | 92 | 1013.7 |
| 20260502040719 | 58 | 162 | 0.0 | 0.0 | 0.00 | 0.00 | 0.00 | 91 | 1013.8 |
| 20260502040216 | 58 | 156 | 0.0 | 0.0 | 0.00 | 0.00 | 0.00 | 91 | 1013.6 |
| 20260502035712 | 58 | 156 | 0.0 | 0.0 | 0.00 | 0.00 | 0.00 | 91 | 1013.7 |
| 20260502035209 | 59 | 181 | 0.0 | 0.0 | 0.00 | 0.00 | 0.00 | 91 | 1013.3 |
| 20260502034706 | 59 | 182 | 0.0 | 0.0 | 0.00 | 0.00 | 0.00 | 91 | 1013.5 |
| 20260502034205 | 59 | 185 | 0.0 | 0.0 | 0.00 | 0.00 | 0.00 | 91 | 1013.4 |
| 20260502033702 | 59 | 179 | 0.0 | 0.0 | 0.00 | 0.00 | 0.00 | 90 | 1013.4 |
| 20260502033200 | 59 | 180 | 0.0 | 1.0 | 0.00 | 0.00 | 0.00 | 90 | 1013.4 |
| 20260502032656 | 59 | 156 | 1.0 | 1.0 | 0.00 | 0.00 | 0.00 | 90 | 1013.3 |
| 20260502032152 | 60 | 144 | 0.0 | 0.0 | 0.00 | 0.00 | 0.00 | 89 | 1013.3 |
| 20260502031650 | 60 | 171 | 1.0 | 1.0 | 0.00 | 0.00 | 0.00 | 89 | 1013.4 |
| 20260502031148 | 60 | 106 | 2.0 | 2.0 | 0.00 | 0.00 | 0.00 | 89 | 1013.1 |
| 20260502030647 | 60 | 146 | 1.0 | 1.0 | 0.00 | 0.00 | 0.00 | 89 | 1013.2 |
| 20260502030144 | 60 | 103 | 3.0 | 3.0 | 0.00 | 0.00 | 0.00 | 89 | 1013.4 |
| 20260502025641 | 60 | 106 | 2.0 | 3.0 | 0.00 | 0.00 | 0.00 | 88 | 1013.1 |
| 20260502025139 | 60 | 101 | 2.0 | 2.0 | 0.00 | 0.00 | 0.00 | 88 | 1013.3 |
| 20260502024637 | 60 | 124 | 2.0 | 2.0 | 0.00 | 0.00 | 0.00 | 88 | 1013.0 |
| 20260502024134 | 61 | 108 | 3.0 | 5.0 | 0.00 | 0.00 | 0.00 | 87 | 1013.1 |
| 20260502023633 | 61 | 154 | 0.0 | 1.0 | 0.00 | 0.00 | 0.00 | 87 | 1013.0 |
| 20260502023129 | 61 | 150 | 2.0 | 2.0 | 0.00 | 0.00 | 0.00 | 87 | 1012.9 |
| 20260502022626 | 61 | 114 | 2.0 | 3.0 | 0.00 | 0.00 | 0.00 | 86 | 1013.0 |
| 20260502022123 | 61 | 163 | 3.0 | 3.0 | 0.00 | 0.00 | 0.00 | 86 | 1012.8 |
| 20260502021621 | 61 | 162 | 2.0 | 2.0 | 0.00 | 0.00 | 0.00 | 86 | 1012.7 |
| 20260502021118 | 62 | 146 | 1.0 | 1.0 | 0.00 | 0.00 | 0.00 | 85 | 1012.8 |
| 20260502020615 | 62 | 171 | 1.0 | 1.0 | 0.00 | 0.00 | 0.00 | 85 | 1012.5 |
| 20260502020112 | 62 | 157 | 2.0 | 3.0 | 0.00 | 0.00 | 0.00 | 85 | 1012.8 |
| 20260502015610 | 62 | 56 | 3.0 | 6.0 | 0.00 | 0.00 | 0.00 | 84 | 1012.5 |
| 20260502015106 | 63 | 216 | 4.0 | 6.0 | 0.00 | 0.00 | 0.00 | 83 | 1012.3 |
| 20260502014603 | 63 | 122 | 4.0 | 5.0 | 0.00 | 0.00 | 0.00 | 83 | 1012.4 |
| 20260502014100 | 63 | 141 | 6.0 | 7.0 | 0.00 | 0.00 | 0.00 | 82 | 1012.2 |
| 20260502013555 | 64 | 203 | 2.0 | 3.0 | 0.00 | 0.00 | 0.00 | 81 | 1012.1 |
| 20260502013052 | 64 | 135 | 4.0 | 6.0 | 0.00 | 0.00 | 0.00 | 80 | 1012.1 |
| 20260502012549 | 65 | 108 | 4.0 | 6.0 | 0.00 | 0.00 | 0.00 | 79 | 1012.2 |
| 20260502012047 | 66 | 162 | 4.0 | 5.0 | 0.00 | 0.00 | 0.00 | 77 | 1012.0 |
| 20260502011544 | 67 | 161 | 1.0 | 1.0 | 0.00 | 0.00 | 0.00 | 76 | 1012.0 |
| 20260502011039 | 67 | 144 | 4.0 | 5.0 | 0.00 | 0.00 | 0.00 | 74 | 1012.1 |
| 20260502010537 | 68 | 111 | 4.0 | 5.0 | 0.00 | 0.00 | 0.00 | 73 | 1012.0 |
| 20260502010033 | 68 | 153 | 5.0 | 6.0 | 0.00 | 0.00 | 0.00 | 72 | 1012.1 |
| 20260502005531 | 68 | 197 | 3.0 | 6.0 | 0.00 | 0.00 | 0.00 | 72 | 1012.0 |
| 20260502005029 | 68 | 100 | 3.0 | 3.0 | 0.00 | 0.00 | 0.00 | 72 | 1011.9 |
| 20260502004524 | 69 | 164 | 1.0 | 1.0 | 0.00 | 0.00 | 0.00 | 72 | 1011.7 |
| 20260502004021 | 69 | 197 | 4.0 | 8.0 | 0.00 | 0.00 | 0.00 | 71 | 1011.8 |
| 20260502003520 | 69 | 121 | 2.0 | 3.0 | 0.00 | 0.00 | 0.00 | 70 | 1011.8 |
| 20260502003016 | 69 | 116 | 3.0 | 3.0 | 0.00 | 0.00 | 0.00 | 70 | 1012.0 |
| 20260502002512 | 70 | 110 | 4.0 | 5.0 | 0.00 | 0.00 | 0.00 | 69 | 1011.8 |
| 20260502002010 | 70 | 196 | 2.0 | 2.0 | 0.00 | 0.00 | 0.00 | 69 | 1011.7 |
| 20260502001507 | 70 | 110 | 3.0 | 3.0 | 0.00 | 0.00 | 0.00 | 68 | 1011.8 |
| 20260502001005 | 70 | 130 | 5.0 | 7.0 | 0.00 | 0.00 | 0.00 | 69 | 1011.7 |
| 20260502000503 | 70 | 83 | 5.0 | 6.0 | 0.00 | 0.00 | 0.00 | 68 | 1011.9 |
| 20260501235959 | 69 | 100 | 7.0 | 9.0 | 0.00 | 0.00 | 0.00 | 69 | 1011.7 |
| 20260501235455 | 70 | 75 | 5.0 | 7.0 | 0.00 | 0.00 | 0.00 | 68 | 1011.6 |
| 20260501234950 | 71 | 103 | 6.0 | 7.0 | 0.00 | 0.00 | 0.00 | 67 | 1011.7 |
| 20260501234447 | 71 | 173 | 3.0 | 5.0 | 0.00 | 0.00 | 0.00 | 67 | 1011.8 |
| 20260501233946 | 71 | 101 | 6.0 | 8.0 | 0.00 | 0.00 | 0.00 | 66 | 1011.6 |
| 20260501233443 | 71 | 88 | 6.0 | 8.0 | 0.00 | 0.00 | 0.00 | 66 | 1011.6 |
| 20260501232938 | 71 | 109 | 5.0 | 7.0 | 0.00 | 0.00 | 0.00 | 67 | 1012.0 |
| 20260501232436 | 71 | 142 | 5.0 | 6.0 | 0.00 | 0.00 | 0.00 | 66 | 1011.7 |
| 20260501231933 | 71 | 111 | 7.0 | 8.0 | 0.00 | 0.00 | 0.00 | 66 | 1011.7 |
| 20260501231431 | 71 | 133 | 5.0 | 6.0 | 0.00 | 0.00 | 0.00 | 67 | 1011.8 |
| 20260501230929 | 71 | 176 | 6.0 | 7.0 | 0.00 | 0.00 | 0.00 | 66 | 1011.8 |
| 20260501230428 | 73 | 152 | 5.0 | 6.0 | 0.00 | 0.00 | 0.00 | 64 | 1012.1 |
| 20260501225925 | 74 | 70 | 4.0 | 5.0 | 0.00 | 0.00 | 0.00 | 63 | 1011.9 |
| 20260501225423 | 74 | 194 | 2.0 | 3.0 | 0.00 | 0.00 | 0.00 | 60 | 1012.2 |
| 20260501224918 | 74 | 166 | 2.0 | 2.0 | 0.00 | 0.00 | 0.00 | 62 | 1011.9 |
| 20260501224415 | 74 | 186 | 4.0 | 5.0 | 0.00 | 0.00 | 0.00 | 60 | 1012.1 |
| 20260501223912 | 73 | 117 | 2.0 | 3.0 | 0.00 | 0.00 | 0.00 | 62 | 1012.1 |
| 20260501223408 | 74 | 134 | 4.0 | 5.0 | 0.00 | 0.00 | 0.00 | 62 | 1012.1 |
| 20260501222904 | 73 | 191 | 2.0 | 2.0 | 0.00 | 0.00 | 0.00 | 62 | 1012.1 |
| 20260501222402 | 73 | 149 | 4.0 | 5.0 | 0.00 | 0.00 | 0.00 | 63 | 1012.2 |
| 20260501221858 | 72 | 113 | 5.0 | 6.0 | 0.00 | 0.00 | 0.00 | 64 | 1012.3 |
| 20260501221355 | 71 | 100 | 3.0 | 3.0 | 0.00 | 0.00 | 0.00 | 65 | 1012.2 |
| 20260501220853 | 71 | 78 | 5.0 | 6.0 | 0.00 | 0.00 | 0.00 | 66 | 1012.3 |
| 20260501220350 | 72 | 152 | 4.0 | 6.0 | 0.00 | 0.00 | 0.00 | 64 | 1012.3 |
| 20260501215847 | 72 | 97 | 5.0 | 7.0 | 0.00 | 0.00 | 0.00 | 64 | 1012.8 |
| 20260501215343 | 72 | 138 | 6.0 | 9.0 | 0.00 | 0.00 | 0.00 | 65 | 1012.3 |
| 20260501214839 | 71 | 94 | 5.0 | 6.0 | 0.00 | 0.00 | 0.00 | 66 | 1012.8 |
| 20260501214334 | 72 | 117 | 4.0 | 5.0 | 0.00 | 0.00 | 0.00 | 65 | 1012.6 |
| 20260501213830 | 73 | 156 | 2.0 | 2.0 | 0.00 | 0.00 | 0.00 | 64 | 1012.7 |
| 20260501213326 | 73 | 123 | 6.0 | 8.0 | 0.00 | 0.00 | 0.00 | 65 | 1012.7 |
| 20260501212817 | 72 | 174 | 2.0 | 2.0 | 0.00 | 0.00 | 0.00 | 64 | 1012.6 |
| 20260501212313 | 71 | 303 | 5.0 | 9.0 | 0.00 | 0.00 | 0.00 | 65 | 1012.7 |
| 20260501211811 | 73 | 112 | 8.0 | 13.0 | 0.00 | 0.00 | 0.00 | 64 | 1012.9 |
| 20260501211308 | 72 | 158 | 1.0 | 2.0 | 0.00 | 0.00 | 0.00 | 64 | 1012.7 |
| 20260501210805 | 73 | 126 | 6.0 | 8.0 | 0.00 | 0.00 | 0.00 | 63 | 1012.8 |
| 20260501210302 | 73 | 125 | 5.0 | 7.0 | 0.00 | 0.00 | 0.00 | 62 | 1012.7 |
| 20260501205758 | 73 | 14 | 5.0 | 8.0 | 0.00 | 0.00 | 0.00 | 63 | 1012.6 |
| 20260501205255 | 73 | 196 | 4.0 | 6.0 | 0.00 | 0.00 | 0.00 | 63 | 1012.7 |
| 20260501204751 | 73 | 78 | 8.0 | 10.0 | 0.00 | 0.00 | 0.00 | 61 | 1012.6 |
| 20260501204248 | 75 | 114 | 4.0 | 5.0 | 0.00 | 0.00 | 0.00 | 59 | 1012.6 |
| 20260501203744 | 75 | 151 | 3.0 | 3.0 | 0.00 | 0.00 | 0.00 | 60 | 1012.6 |
| 20260501203242 | 75 | 210 | 3.0 | 5.0 | 0.00 | 0.00 | 0.00 | 59 | 1013.0 |
| 20260501202739 | 74 | 174 | 0.0 | 1.0 | 0.00 | 0.00 | 0.00 | 61 | 1013.0 |
| 20260501202236 | 75 | 93 | 4.0 | 6.0 | 0.00 | 0.00 | 0.00 | 61 | 1012.7 |
| 20260501201733 | 73 | 103 | 8.0 | 9.0 | 0.00 | 0.00 | 0.00 | 61 | 1012.7 |
| 20260501201229 | 73 | 113 | 5.0 | 7.0 | 0.00 | 0.00 | 0.00 | 62 | 1012.9 |
| 20260501200726 | 74 | 204 | 4.0 | 5.0 | 0.00 | 0.00 | 0.00 | 61 | 1012.9 |
| 20260501200223 | 74 | 180 | 2.0 | 3.0 | 0.00 | 0.00 | 0.00 | 61 | 1012.7 |
| 20260501195721 | 74 | 46 | 3.0 | 3.0 | 0.00 | 0.00 | 0.00 | 59 | 1012.8 |
| 20260501195217 | 75 | 122 | 1.0 | 1.0 | 0.00 | 0.00 | 0.00 | 58 | 1013.1 |
| 20260501194713 | 76 | 70 | 3.0 | 3.0 | 0.00 | 0.00 | 0.00 | 57 | 1013.1 |
| 20260501194208 | 76 | 147 | 0.0 | 0.0 | 0.00 | 0.00 | 0.00 | 58 | 1013.0 |
| 20260501193705 | 75 | 344 | 3.0 | 3.0 | 0.00 | 0.00 | 0.00 | 58 | 1013.1 |
| 20260501193204 | 74 | 18 | 0.0 | 0.0 | 0.00 | 0.00 | 0.00 | 60 | 1013.2 |
| 20260501192701 | 74 | 24 | 1.0 | 1.0 | 0.00 | 0.00 | 0.00 | 59 | 1013.2 |
| 20260501192158 | 74 | 163 | 1.0 | 1.0 | 0.00 | 0.00 | 0.00 | 60 | 1013.2 |
| 20260501191655 | 73 | 236 | 3.0 | 5.0 | 0.00 | 0.00 | 0.00 | 60 | 1013.3 |
| 20260501191153 | 73 | 224 | 2.0 | 2.0 | 0.00 | 0.00 | 0.00 | 61 | 1013.5 |
| 20260501190649 | 73 | 285 | 3.0 | 3.0 | 0.00 | 0.00 | 0.00 | 61 | 1013.6 |
| 20260501190144 | 73 | 27 | 2.0 | 2.0 | 0.00 | 0.00 | 0.00 | 61 | 1013.6 |
| 20260501185640 | 72 | 275 | 1.0 | 2.0 | 0.00 | 0.00 | 0.00 | 63 | 1013.9 |
| 20260501185135 | 71 | 252 | 3.0 | 3.0 | 0.00 | 0.00 | 0.00 | 64 | 1014.0 |
| 20260501184633 | 70 | 323 | 2.0 | 2.0 | 0.00 | 0.00 | 0.00 | 65 | 1013.9 |
| 20260501184127 | 69 | 97 | 2.0 | 2.0 | 0.00 | 0.00 | 0.00 | 66 | 1014.1 |
| 20260501183625 | 69 | 143 | 1.0 | 1.0 | 0.00 | 0.00 | 0.00 | 69 | 1014.2 |
| 20260501183121 | 69 | 70 | 1.0 | 2.0 | 0.00 | 0.00 | 0.00 | 68 | 1014.3 |
| 20260501182618 | 68 | 4 | 2.0 | 3.0 | 0.00 | 0.00 | 0.00 | 69 | 1014.1 |
| 20260501182114 | 70 | 40 | 3.0 | 3.0 | 0.00 | 0.00 | 0.00 | 66 | 1014.5 |
| 20260501181611 | 69 | 59 | 1.0 | 1.0 | 0.00 | 0.00 | 0.00 | 68 | 1014.4 |
| 20260501181108 | 68 | 7 | 1.0 | 1.0 | 0.00 | 0.00 | 0.00 | 69 | 1014.4 |
| 20260501180607 | 67 | 141 | 2.0 | 2.0 | 0.00 | 0.00 | 0.00 | 71 | 1014.4 |
| 20260501175559 | 67 | 177 | 0.0 | 1.0 | 0.00 | 0.00 | 0.00 | 71 | 1014.7 |
| 20260501175056 | 66 | 51 | 2.0 | 2.0 | 0.00 | 0.00 | 0.00 | 73 | 1014.7 |
| 20260501174552 | 65 | 132 | 1.0 | 2.0 | 0.00 | 0.00 | 0.00 | 74 | 1014.9 |
| 20260501174050 | 66 | 357 | 1.0 | 2.0 | 0.00 | 0.00 | 0.00 | 72 | 1014.6 |
| 20260501173547 | 66 | 265 | 1.0 | 2.0 | 0.00 | 0.00 | 0.00 | 72 | 1014.9 |
| 20260501173043 | 65 | 164 | 0.0 | 0.0 | 0.00 | 0.00 | 0.00 | 74 | 1014.9 |
| 20260501172540 | 65 | 286 | 2.0 | 2.0 | 0.00 | 0.00 | 0.00 | 75 | 1014.9 |
| 20260501172035 | 65 | 247 | 1.0 | 1.0 | 0.00 | 0.00 | 0.00 | 74 | 1014.9 |
| 20260501171532 | 64 | 38 | 1.0 | 1.0 | 0.00 | 0.00 | 0.00 | 77 | 1014.8 |
| 20260501171028 | 64 | 95 | 1.0 | 1.0 | 0.00 | 0.00 | 0.00 | 76 | 1015.1 |
| 20260501170525 | 63 | 261 | 0.0 | 2.0 | 0.00 | 0.00 | 0.00 | 77 | 1015.0 |
| 20260501170023 | 63 | 307 | 1.0 | 1.0 | 0.00 | 0.00 | 0.00 | 78 | 1014.9 |
| 20260501165521 | 62 | 233 | 0.0 | 1.0 | 0.00 | 0.00 | 0.00 | 78 | 1015.0 |
| 20260501165018 | 62 | 192 | 0.0 | 0.0 | 0.00 | 0.00 | 0.00 | 79 | 1015.1 |
| 20260501164515 | 61 | 271 | 1.0 | 2.0 | 0.00 | 0.00 | 0.00 | 80 | 1015.0 |
| 20260501164012 | 61 | 114 | 3.0 | 3.0 | 0.00 | 0.00 | 0.00 | 80 | 1015.2 |
| 20260501163508 | 62 | 134 | 0.0 | 0.0 | 0.00 | 0.00 | 0.00 | 80 | 1015.0 |
| 20260501163005 | 61 | 183 | 0.0 | 0.0 | 0.00 | 0.00 | 0.00 | 81 | 1015.0 |
| 20260501162501 | 61 | 254 | 3.0 | 3.0 | 0.00 | 0.00 | 0.00 | 81 | 1015.2 |